Stations météo

réclame
Mon MeteoGroup
Le Luc, France (7675): Température de l'air & dewpoint: 14.10.2018 19:00:00 - 20.10.2018 19:00:00 (CEST)Le Luc, France (7675): Température de l'air 5cm: 14.10.2018 19:00:00 - 20.10.2018 19:00:00 (CEST)Le Luc, France (7675): Vitesse du vent & gusts: 14.10.2018 19:00:00 - 20.10.2018 19:00:00 (CEST)Le Luc, France (7675): Direction du vent: 14.10.2018 19:00:00 - 20.10.2018 19:00:00 (CEST)Le Luc, France (7675): reduced air pressure: 14.10.2018 19:00:00 - 20.10.2018 19:00:00 (CEST)Le Luc, France (7675): visibility: 14.10.2018 19:00:00 - 20.10.2018 19:00:00 (CEST)Le Luc, France (7675): Ensoleillement: 14.10.2018 19:00:00 - 20.10.2018 19:00:00 (CEST)Le Luc, France (7675): Quantités de précipitations: 14.10.2018 19:00:00 - 20.10.2018 19:00:00 (CEST)
Date & Time tt [°C] td [°C] tt 5cm [°C] ff [km/h] ff [knt] fx [km/h] fx [knt] dd ppp [hPa] vv [km] sd [min] rr [mm]
20.10.2018 19:00:00 20,9 14,1 18,7 5 3 7 4 WSW 1021,6 28 0 0,0
20.10.2018 18:00:00 23,4 12,4 22,6 2 1 14 8 SE 1021,2 38 0 0,0
20.10.2018 17:00:00 24,9 11,1 25,6 10 5 18 10 ESE 1021,0 43 17 0,0
20.10.2018 16:00:00 25,3 11,1 27,6 14 7 23 12 SE 1021,0 36 57 0,0
20.10.2018 15:00:00 26,0 13,1 31,4 5 3 12 7 SE 1021,0 25 60 0,0
20.10.2018 14:00:00 25,3 12,8 30,9 4 2 8 4 SSW 1021,7 30 60 0,0
20.10.2018 13:00:00 23,6 14,9 25,4 2 1 6 3 SSE 1022,5 8 58 0,0
20.10.2018 12:00:00 20,2 15,4 23,2 3 1 6 4 SE 1022,8 20 56 0,0
20.10.2018 11:00:00 16,9 14,5 17,0 0 0 4 2 N 1023,2 18 37 0,0
20.10.2018 10:00:00 14,1 13,3 13,1 0 0 5 3 N 1023,0 13 19 0,0
20.10.2018 09:00:00 12,1 11,8 9,4 0 0 4 2 N 1022,4 12 44 0,0
20.10.2018 08:00:00 10,7 10,2 9,1 0 0 4 2 N 1021,7 10 0 0,2
20.10.2018 07:00:00 11,5 11,0 9,9 3 2 4 2 W 1021,0 9 0 0,0
20.10.2018 06:00:00 11,5 11,0 9,8 2 1 4 2 W 1020,9 10 0 0,0
20.10.2018 05:00:00 12,0 11,5 10,0 3 2 5 3 SE 1020,6 11 0 0,0
20.10.2018 04:00:00 12,4 11,8 10,7 0 0 5 3 N 1020,5 11 0 0,0
20.10.2018 03:00:00 12,7 12,2 11,0 0 0 4 2 N 1020,5 9 0 0,0
20.10.2018 02:00:00 13,2 12,6 11,5 0 0 4 2 N 1020,3 9 0 0,0
20.10.2018 01:00:00 13,4 12,5 12,1 0 0 5 3 N 1020,0 8 0 0,0
20.10.2018 00:00:00 14,2 13,1 12,8 0 0 4 2 N 1019,9 8 0 0,0
19.10.2018 23:00:00 15,2 13,9 13,4 2 1 4 2 W 1019,7 12 0 0,0
19.10.2018 22:00:00 15,9 14,3 13,9 0 0 3 1 N 1019,4 15 0 0,0
19.10.2018 21:00:00 17,2 14,7 15,1 0 0 5 3 N 1018,9 18 0 0,0
19.10.2018 20:00:00 18,9 14,6 16,6 0 0 11 6 N 1018,5 29 0 0,0
19.10.2018 19:00:00 20,0 15,0 18,8 9 5 14 8 ENE 1017,5 31 22 0,0
19.10.2018 18:00:00 22,8 14,6 22,9 10 5 21 11 ESE 1016,6 34 43 0,0
19.10.2018 17:00:00 24,5 15,4 25,4 16 9 22 12 ESE 1015,9 34 60 0,0
19.10.2018 16:00:00 26,1 15,2 30,4 7 4 14 8 SE 1015,6 35 60 0,0
19.10.2018 15:00:00 25,8 15,5 30,4 7 4 18 10 SSE 1015,8 36 60 0,0
19.10.2018 14:00:00 25,7 15,4 30,3 2 1 7 4 NW 1016,5 15 60 0,0
19.10.2018 13:00:00 24,5 15,4 28,7 2 1 8 5 SE 1017,2 19 60 0,0
19.10.2018 12:00:00 22,2 16,0 25,2 3 2 6 3 SSW 1017,6 15 60 0,0
19.10.2018 11:00:00 19,0 14,7 21,8 2 1 6 3 SE 1017,8 15 60 0,0
19.10.2018 10:00:00 15,7 14,2 14,7 0 0 9 5 N 1017,6 15 60 0,0
19.10.2018 09:00:00 13,0 12,7 10,7 2 1 8 5 W 1017,4 12 45 0,0
19.10.2018 08:00:00 11,4 11,1 10,1 3 2 7 4 SE 1016,7 15 0 0,2
19.10.2018 07:00:00 11,6 11,0 10,3 0 0 5 3 N 1016,3 15 0 0,0
19.10.2018 06:00:00 12,3 11,8 10,7 2 1 4 2 SW 1016,1 12 0 0,0
19.10.2018 05:00:00 12,5 12,0 11,1 0 0 7 4 N 1015,8 10 0 0,0
19.10.2018 04:00:00 13,1 12,6 11,5 2 1 5 3 WSW 1015,8 12 0 0,0
19.10.2018 03:00:00 13,4 12,6 11,9 0 0 5 3 N 1015,6 11 0 0,0
19.10.2018 02:00:00 14,3 13,5 13,0 0 0 8 4 N 1015,7 13 0 0,0
19.10.2018 01:00:00 14,2 13,6 12,9 0 0 5 3 N 1015,4 12 0 0,0
19.10.2018 00:00:00 14,4 13,3 13,3 2 1 4 2 NW 1015,3 12 0 0,0
18.10.2018 23:00:00 15,3 14,0 14,0 2 1 4 2 S 1014,8 17 0 0,0
18.10.2018 22:00:00 16,1 14,3 14,6 3 1 6 3 W 1014,2 20 0 0,0
18.10.2018 21:00:00 17,5 14,6 15,2 0 0 16 9 N 1013,7 28 0 0,0
18.10.2018 20:00:00 18,7 15,2 16,7 3 2 14 8 NNW 1013,4 30 0 0,0
18.10.2018 19:00:00 20,6 14,7 18,2 4 2 15 8 N 1013,0 44 0 0,0
18.10.2018 18:00:00 22,4 14,8 22,6 6 4 14 7 SSE 1012,4 30 4 0,0
18.10.2018 17:00:00 23,5 14,2 24,0 12 7 25 14 ENE 1012,0 49 34 0,0
18.10.2018 16:00:00 24,2 14,6 26,7 18 10 33 18 ESE 1012,4 30 60 -
18.10.2018 15:00:00 24,5 14,9 27,2 21 11 36 19 E 1012,6 30 60 0,0
18.10.2018 14:00:00 24,2 14,3 26,1 26 14 40 21 E 1012,9 25 58 0,0
18.10.2018 13:00:00 24,1 14,8 26,4 22 12 38 20 E 1013,3 40 60 0,0
18.10.2018 12:00:00 22,7 16,7 24,2 5 3 12 6 E 1013,6 25 60 0,0
18.10.2018 11:00:00 19,8 17,8 20,2 4 2 8 4 NNE 1013,8 25 48 0,0
18.10.2018 10:00:00 16,8 16,6 15,8 0 0 5 3 N 1014,1 11 35 0,0
18.10.2018 09:00:00 15,0 14,8 13,6 0 0 4 2 N 1013,8 0,5 36 0,0
18.10.2018 08:00:00 14,4 14,2 13,4 0 0 5 3 N 1013,9 4,0 0 0,0
18.10.2018 07:00:00 14,6 14,4 13,6 0 0 4 2 N 1013,7 0,8 0 0,0
18.10.2018 06:00:00 15,3 15,0 13,6 3 2 5 3 ESE 1013,5 6 0 0,0
18.10.2018 05:00:00 15,5 15,2 14,3 3 2 5 3 NW 1013,5 1,5 0 0,0
18.10.2018 04:00:00 16,3 15,8 14,8 0 0 6 3 N 1013,5 1,8 0 0,0
18.10.2018 03:00:00 17,1 16,5 16,1 2 1 7 4 NW 1014,3 11 0 0,0
18.10.2018 02:00:00 17,4 16,9 16,7 4 2 9 5 W 1014,9 9 0 0,2
18.10.2018 01:00:00 17,5 16,5 16,7 4 2 6 3 NNW 1015,2 12 0 0,0
18.10.2018 00:00:00 17,5 16,4 16,7 4 2 21 11 N 1015,4 13 0 0,8
17.10.2018 23:00:00 18,2 16,2 16,7 10 6 21 12 ENE 1015,4 19 0 0,0
17.10.2018 22:00:00 18,6 15,7 16,8 6 4 14 8 NE 1014,9 16 0 0,0
17.10.2018 21:00:00 18,4 15,8 16,8 7 4 18 10 NNE 1014,7 36 0 0,0
17.10.2018 20:00:00 18,3 15,7 16,6 10 6 24 13 ENE 1014,9 10 0 0,4
17.10.2018 19:00:00 18,6 16,4 17,3 4 2 16 9 NE 1014,5 9 0 0,0
17.10.2018 18:00:00 19,1 16,5 17,2 10 5 32 17 ESE 1014,5 9 0 0,2
17.10.2018 17:00:00 21,3 14,9 20,9 6 4 29 16 E 1014,2 20 0 0,0
17.10.2018 16:00:00 22,3 15,2 22,6 18 10 28 15 ESE 1014,1 20 0 0,0
17.10.2018 15:00:00 22,1 15,7 22,5 11 6 27 15 E 1014,2 20 8 0,0
17.10.2018 14:00:00 22,0 15,8 24,6 15 8 24 13 ENE 1014,7 20 39 0,0
17.10.2018 13:00:00 21,5 16,0 20,7 8 4 12 6 NNE 1015,6 15 27 0,0
17.10.2018 12:00:00 18,8 16,6 20,2 5 3 11 6 NE 1016,4 18 0 0,0
17.10.2018 11:00:00 18,4 15,6 19,4 0 0 5 3 N 1016,3 20 12 0,0
17.10.2018 10:00:00 17,4 15,7 16,1 0 0 14 8 N 1016,7 18 11 0,0
17.10.2018 09:00:00 16,1 15,5 15,4 2 1 7 4 W 1016,6 14 0 0,0
17.10.2018 08:00:00 15,9 15,3 15,4 3 2 8 4 WSW 1016,3 10 0 0,0
17.10.2018 07:00:00 15,8 15,3 15,4 4 2 6 4 SSW 1016,5 10 0 0,0
17.10.2018 06:00:00 15,9 15,6 15,5 4 2 9 5 S 1016,7 7 0 1,2
17.10.2018 05:00:00 16,1 15,8 15,5 4 2 10 5 SE 1016,8 6 0 0,4
17.10.2018 04:00:00 16,1 15,6 15,5 3 1 6 3 S 1017,2 7 0 0,2
17.10.2018 03:00:00 16,1 15,6 15,6 2 1 5 3 NW 1017,6 6 0 0,0
17.10.2018 02:00:00 16,1 15,6 15,6 3 2 7 4 SSW 1017,9 4,3 0 0,0
17.10.2018 01:00:00 16,3 15,7 15,6 3 2 6 3 SSE 1018,0 8 0 0,2
17.10.2018 00:00:00 16,2 15,4 15,6 4 2 11 6 NW 1018,4 10 0 0,8
16.10.2018 23:00:00 16,4 15,6 15,8 5 3 8 5 NNE 1018,8 7 0 0,4
16.10.2018 22:00:00 16,7 15,7 15,7 4 2 9 5 W 1018,8 5 0 1,2
16.10.2018 21:00:00 17,8 15,2 17,2 5 3 10 5 S 1018,4 15 0 0,0
16.10.2018 20:00:00 18,2 15,1 17,7 6 4 10 5 NW 1018,1 15 0 0,0
16.10.2018 19:00:00 18,6 15,7 17,2 4 2 7 4 NNW 1017,6 15 0 0,0
16.10.2018 18:00:00 19,5 14,1 19,1 2 1 11 6 SSW 1017,1 20 0 0,0
16.10.2018 17:00:00 20,4 14,3 20,9 4 2 14 8 E 1017,0 15 0 0,0
16.10.2018 16:00:00 20,3 13,7 20,8 4 2 12 7 E 1017,1 10 0 0,0
16.10.2018 15:00:00 19,6 14,2 20,7 9 5 16 9 E 1017,1 11 0 0,0
16.10.2018 14:00:00 19,7 14,5 19,0 5 3 14 8 ENE 1017,4 10 8 0,0
16.10.2018 13:00:00 18,1 15,2 16,6 8 5 18 10 ESE 1018,0 17 0 0,0
16.10.2018 12:00:00 17,1 15,3 16,5 0 0 9 5 N 1018,3 9 0 0,2
16.10.2018 11:00:00 17,0 15,0 15,6 5 3 17 9 NE 1017,8 11 0 0,0
16.10.2018 10:00:00 16,4 14,9 15,2 8 4 15 8 NNE 1017,7 6 0 1,6
16.10.2018 09:00:00 16,6 14,1 15,0 4 2 29 15 E 1017,4 8 0 0,4
16.10.2018 08:00:00 17,8 13,9 16,8 19 10 27 15 SE 1016,3 10 0 0,0
16.10.2018 07:00:00 18,8 12,5 16,2 18 10 32 17 SE 1015,5 10 0 0,0
16.10.2018 06:00:00 18,4 12,8 16,8 11 6 28 15 SSE 1015,7 19 0 0,0
16.10.2018 05:00:00 20,1 11,6 19,0 19 10 31 17 E 1015,5 19 0 0,0
16.10.2018 04:00:00 20,2 12,7 19,1 14 8 36 20 ESE 1015,4 26 0 0,0
16.10.2018 03:00:00 20,7 11,3 19,1 22 12 39 21 ESE 1015,8 25 0 0,0
16.10.2018 02:00:00 20,1 13,3 19,1 16 9 35 19 SE 1015,8 19 0 0,0
16.10.2018 01:00:00 20,2 12,4 19,2 11 6 45 24 ESE 1015,8 28 0 0,0
16.10.2018 00:00:00 20,9 11,0 19,8 26 14 48 26 ESE 1015,8 35 0 0,0
15.10.2018 23:00:00 20,8 12,0 18,6 23 13 40 21 ESE 1015,6 30 0 0,0
15.10.2018 22:00:00 20,4 11,3 18,3 19 11 40 21 E 1015,4 32 0 0,0
15.10.2018 21:00:00 19,8 12,3 17,2 24 13 42 23 E 1014,9 20 0 0,0
15.10.2018 20:00:00 19,9 12,4 18,5 21 12 52 28 E 1014,6 20 0 0,0
15.10.2018 19:00:00 20,4 12,1 18,7 27 15 56 31 E 1013,7 25 30 0,0
15.10.2018 18:00:00 21,2 12,1 20,0 28 15 51 28 E 1013,2 20 4 0,0
15.10.2018 17:00:00 21,1 12,2 19,8 28 15 54 29 E 1012,9 20 0 0,0
15.10.2018 16:00:00 21,6 12,4 21,8 25 14 58 31 E 1013,0 25 0 0,0
15.10.2018 15:00:00 21,6 12,7 21,7 31 17 63 34 E 1013,1 20 0 0,0
15.10.2018 14:00:00 21,3 12,4 21,6 36 19 61 33 E 1013,1 25 0 0,0
15.10.2018 13:00:00 21,4 12,8 21,5 34 19 59 32 E 1013,4 25 0 0,0
15.10.2018 12:00:00 21,4 12,3 21,7 27 15 61 33 E 1014,2 20 0 0,0
15.10.2018 11:00:00 21,7 11,4 21,6 34 18 60 32 E 1013,5 27 0 0,0
15.10.2018 10:00:00 21,5 11,2 20,4 31 17 60 33 E 1013,1 25 0 0,0
15.10.2018 09:00:00 20,6 11,0 19,0 22 12 42 23 E 1012,6 25 0 0,0
15.10.2018 08:00:00 20,1 11,0 18,7 26 14 46 25 E 1012,3 25 0 0,0
15.10.2018 07:00:00 20,2 11,7 19,2 23 12 45 25 E 1012,8 25 0 0,0
15.10.2018 06:00:00 20,2 11,7 18,8 21 11 41 22 E 1013,1 29 0 0,0
15.10.2018 05:00:00 20,1 11,8 19,0 24 13 40 22 E 1013,2 30 0 0,0
15.10.2018 04:00:00 20,2 11,7 18,9 20 11 56 30 E 1013,6 33 0 0,0
15.10.2018 03:00:00 20,3 11,5 19,1 24 13 43 23 E 1014,1 32 0 0,0
15.10.2018 02:00:00 20,6 11,5 18,7 24 13 39 21 E 1014,4 36 0 0,0
15.10.2018 01:00:00 20,1 10,8 18,7 16 9 37 20 E 1014,5 39 0 0,0
15.10.2018 00:00:00 20,3 11,0 18,8 20 11 34 18 ESE 1014,9 32 0 0,0
14.10.2018 23:00:00 20,0 13,5 18,8 19 10 33 18 ESE 1015,1 20 0 0,0
14.10.2018 22:00:00 20,1 14,0 18,7 21 12 35 19 ESE 1015,3 19 0 0,0
14.10.2018 21:00:00 19,8 14,4 18,6 18 10 28 15 ESE 1015,2 16 0 0,0
14.10.2018 20:00:00 19,9 12,6 18,8 15 8 30 16 ESE 1015,0 20 0 0,0
14.10.2018 19:00:00 20,1 13,1 19,3 20 11 37 20 E 1014,4 19 30 0,0

tt = Température de l'air
td = dewpoint
tt 5cm = Température de l'air 5cm
ff = Vitesse du vent
fx = gusts
dd = Direction du vent
ppp = reduced air pressure
vv = visibility
sd = Ensoleillement
rr = Quantités de précipitations

stations d'obs. à proximité